Location: Sungai Bunut
(2.6333°N, 113.7333°E)
Time: 20:26:35
(UTC+00:00)

Cosmos 1697 Rocket - Pass Details

Date: 24 May 2022
Orbit: 833 x 843 km, 71.0° (Epoch: 03 July)

Event Time Altitude Azimuth Distance (km) Brightness Sun altitude
Rises 12:30:19 0° 211° (SSW) 3,388 5.9 -28.7°
Reaches altitude 10° 12:32:55 10° 219° (SW) 2,453 5.2 -29.3°
Maximum altitude 12:38:04 37° 286° (WNW) 1,280 4.0 -30.4°
Drops below altitude 10° 12:43:13 10° 352° (N) 2,450 5.5 -31.6°
Sets 12:45:50 0° 0° (N) 3,383 6.1 -32.1°
